x

Superior Grand Traverse Bay, Mi (gtrm4) Weather Station

6:00pm - Tue 30th Jun 2015 All times are CDT. -5 hours from GMT.

  • Wind
    10mph, 13mph gusts
  • Air Temp 51°f
  • Sea Pressure 1014.6mb
  • Superior Grand Traverse Bay, Mi
  • Superior Grand Traverse Bay, Mi

More Historic Weather Station data

Upgrade to MSW Pro to gain access to the past 30 days of data for over 8000 Wavebouys and Weather Stations around the globe.

Join Pro

Comparision Forecast

View Surf forecast
   
Tue 06/30 6:00pm 10 13 mph 1014.6mb 51f
5:50pm 10 13 mph 1014.6mb 52f
5:40pm 8 13 mph 1014.6mb 52f
5:30pm 10 11 mph 1014.6mb 52f
5:20pm 9 15 mph 1014.6mb 60f
5:10pm 7 16 mph 1014.6mb 60f
5:00pm 13 15 mph 1014.6mb 60f
4:50pm 7 21 mph 1014.6mb 61f
4:40pm 9 16 mph 1014.6mb 60f
4:30pm 6 13 mph 1014.6mb 61f
4:20pm 5 16 mph 1014.2mb 61f
4:10pm 6 17 mph 1014.6mb 60f
4:00pm 13 17 mph 1014.6mb 60f
3:50pm 9 14 mph 1014.6mb 60f
3:40pm 9 15 mph 1014.6mb 60f
3:30pm 8 13 mph 1014.6mb 59f
3:20pm 7 14 mph 1014.6mb 59f
3:10pm 14 17 mph 1014.9mb 58f
3:00pm 9 17 mph 1014.9mb 58f
2:50pm 14 23 mph 1014.6mb 57f
2:40pm 18 23 mph 1014.6mb 57f
2:30pm 18 23 mph 1014.6mb 56f
2:20pm 16 22 mph 1014.6mb 56f
2:10pm 14 21 mph 1014.9mb 56f
2:00pm 18 23 mph 1014.9mb 55f
1:50pm 17 24 mph 1014.6mb 55f
1:40pm 18 23 mph 1014.9mb 55f
1:30pm 14 22 mph 1014.9mb 54f
1:20pm 14 25 mph 1014.9mb 54f
1:10pm 15 20 mph 1014.9mb 53f
1:00pm 13 20 mph 1014.9mb 52f
12:50pm 14 21 mph 1014.9mb 52f
12:40pm 7 17 mph 1015.2mb 52f
12:30pm 10 17 mph 1015.2mb 51f
12:20pm 13 17 mph 1014.9mb 51f
12:10pm 11 21 mph 1014.9mb 51f
12:00pm 11 17 mph 1014.9mb 50f
11:50am 10 16 mph 1014.9mb 50f
11:40am 8 16 mph 1014.9mb 51f
11:30am 10 17 mph 1014.9mb 50f
11:20am 8 11 mph 1014.6mb 51f
11:10am 8 17 mph 1014.6mb 50f
11:00am 7 15 mph 1014.2mb 51f
10:50am 7 13 mph 1014.2mb 51f
10:40am 7 14 mph 1014.2mb 50f
10:30am 9 14 mph 1014.2mb 49f
10:20am 9 17 mph 1013.9mb 49f
10:10am 7 13 mph 1013.5mb 50f
10:00am 9 17 mph 1013.5mb 49f
9:50am 7 14 mph 1013.9mb 49f
9:40am 9 13 mph 1013.9mb 49f
9:30am 5 9 mph 1013.9mb 50f
9:20am 6 10 mph 1013.9mb 49f
9:10am 8 13 mph 1013.9mb 49f
9:00am 8 14 mph 1013.9mb 50f
8:50am 8 11 mph 1013.9mb 49f
8:40am 8 13 mph 1013.9mb 49f
8:30am 5 13 mph 1013.9mb 49f
8:20am 6 9 mph 1013.9mb 49f
8:10am 5 13 mph 1013.9mb 49f
8:00am 5 10 mph 1013.9mb 49f
7:50am 6 9 mph 1013.5mb 49f
7:40am 6 9 mph 1013.5mb 49f
7:30am 6 10 mph 1013.5mb 49f
7:20am 3 11 mph 1013.5mb 49f
7:10am 5 8 mph 1013.2mb 49f
7:00am 3 11 mph 1013.2mb 49f
6:50am 7 17 mph 1013.2mb 49f
6:40am 2 5 mph 1012.9mb 49f
6:30am  -  8 mph 1012.9mb 49f
6:20am 1 7 mph 1012.9mb 49f
6:10am 5 11 mph 1012.5mb 49f
6:00am 3 13 mph 1012.5mb 49f
5:50am 7 15 mph 1012.2mb 49f
5:40am 6 11 mph 1012.2mb 49f
5:30am 7 9 mph 1012.2mb 49f
5:20am 6 13 mph 1012.2mb 49f
5:10am 6 11 mph 1012.2mb 49f
5:00am 6 13 mph 1011.9mb 49f
4:50am 9 14 mph 1011.9mb 49f
4:40am 3 11 mph 1011.5mb 49f
4:30am 7 10 mph 1011.5mb 50f
4:20am 3 11 mph 1011.2mb 50f
4:10am 6 9 mph 1010.8mb 50f
4:00am 6 14 mph 1010.8mb 50f
3:50am 6 13 mph 1010.8mb 50f
3:40am 7 15 mph 1010.8mb 50f
3:30am 8 15 mph 1010.8mb 50f
3:20am 8 14 mph 1010.8mb 51f
3:10am 7 10 mph 1010.8mb 51f
3:00am 9 16 mph 1010.5mb 51f
2:50am 9 13 mph 1010.8mb 51f
2:40am 6 13 mph 1010.5mb 51f
2:30am 7 14 mph 1010.5mb 51f
2:20am 10 15 mph 1010.5mb 52f
2:10am 7 13 mph 1010.5mb 52f
2:00am 8 14 mph 1010.2mb 52f
1:50am 7 14 mph 1010.2mb 53f
1:40am 8 13 mph 1010.2mb 53f
1:30am 8 14 mph 1010.2mb 53f
1:20am 9 13 mph 1009.8mb 53f
1:10am 9 14 mph 1009.8mb 54f
1:00am 9 14 mph 1009.8mb 54f
12:50am 10 15 mph 1009.5mb 55f
12:40am 11 15 mph 1009.5mb 55f
12:30am 10 15 mph 1009.5mb 56f
12:20am 11 17 mph 1008.8mb 57f
12:10am 9 16 mph 1008.8mb 58f
12:00am 9 15 mph 1008.8mb 58f
Mon 06/29 11:50pm 10 14 mph 1008.8mb 58f
11:40pm 7 13 mph 1008.5mb 59f
11:30pm 7 11 mph 1008.8mb 59f
11:20pm 5 8 mph 1008.8mb 60f
11:10pm 5 9 mph 1008.5mb 60f
11:00pm 5 8 mph 1008.5mb 60f
10:50pm 3 7 mph 1008.5mb 60f
10:40pm 3 7 mph 1008.5mb 60f
10:30pm 6 10 mph 1008.8mb 60f
10:20pm 5 7 mph 1008.8mb 60f
10:10pm 5 8 mph 1008.5mb 60f
10:00pm 5 7 mph 1008.5mb 60f
9:50pm 3 6 mph 1008.5mb 60f
9:40pm 3 5 mph 1008.5mb 60f
9:30pm 2 6 mph 1008.5mb 60f
9:20pm 3 6 mph 1008.5mb 60f
9:10pm 5 7 mph 1008.5mb 60f
9:00pm 5 7 mph 1008.1mb 60f
8:50pm 3 7 mph 1008.1mb 60f
8:40pm 1 2 mph 1008.1mb 59f
8:30pm  -  2 mph 1008.1mb 59f
8:20pm 2
mph
1008.1mb 60f
8:10pm  -  1 mph 1008.5mb 59f
7:00pm 1 3 mph 1007.8mb 59f
6:50pm 2 5 mph 1007.8mb 59f
6:40pm 3 7 mph 1007.5mb 59f
6:30pm 5 7 mph 1007.5mb 59f
6:20pm 3 5 mph 1007.1mb 59f
6:10pm 5 7 mph 1007.5mb 60f
6:00pm 6 7 mph 1007.1mb 61f
5:50pm 3 6 mph 1007.1mb 60f
5:40pm 5 6 mph 1007.1mb 60f
5:30pm 6
mph
1007.1mb 60f
5:20pm 3 7 mph 1007.5mb 60f
5:10pm 7 9 mph 1007.1mb 60f
5:00pm 7 9 mph 1007.1mb 60f
4:50pm 7 8 mph 1007.1mb 60f
4:40pm 5 9 mph 1007.1mb 62f
4:30pm 9 11 mph 1007.1mb 61f
4:20pm 9 10 mph 1006.8mb 60f
4:10pm 7 8 mph 1006.8mb 62f
4:00pm 7 8 mph 1006.8mb 61f
3:50pm 3 5 mph 1006.8mb 63f
3:40pm 2 6 mph 1006.8mb 63f
3:30pm 2 7 mph 1006.8mb 63f
3:20pm 3 10 mph 1007.1mb 63f
3:10pm 8 10 mph 1006.8mb 60f
3:00pm 8 11 mph 1006.8mb 60f
2:50pm 5 8 mph 1006.8mb 65f
2:40pm 3 8 mph 1006.4mb 64f
2:30pm 6 10 mph 1006.4mb 64f
2:20pm 10 15 mph 1006.1mb 63f
2:10pm 14 15 mph 1006.1mb 64f
2:00pm 10 14 mph 1006.4mb -
1:50pm 5 11 mph 1006.4mb 77f
1:40pm 6 15 mph 1006.8mb 74f
1:30pm 8 17 mph 1006.8mb 75f
1:20pm 11 20 mph 1006.8mb 74f
1:10pm 11 18 mph 1006.8mb 75f
1:00pm 13 20 mph 1007.1mb 73f
12:50pm  -  8 mph 1006.8mb 67f
12:00pm 9 10 mph 1007.1mb 67f
11:50am 8 11 mph 1007.1mb 66f
11:40am 11 13 mph 1007.1mb 64f
11:30am 10 11 mph 1007.1mb 66f
11:20am 8 9 mph 1007.5mb 66f
11:10am 8 9 mph 1007.5mb 67f
11:00am 7 9 mph 1007.5mb 67f
10:50am 5 8 mph 1007.5mb 69f
10:40am 6 9 mph 1007.5mb 69f
10:30am 5 8 mph 1007.5mb 68f
10:20am 3 8 mph 1007.5mb 68f
10:10am 2 7 mph 1007.5mb 68f
10:00am 5 8 mph 1007.5mb 67f
9:50am 5 9 mph 1007.8mb 67f
9:40am 6 8 mph 1007.8mb 67f
9:30am 5 8 mph 1007.8mb 65f
9:20am 7 11 mph 1007.8mb 61f
9:10am 9 10 mph 1007.8mb 63f
9:00am 7 9 mph 1008.1mb 65f
8:50am 6 7 mph 1008.1mb 65f
8:40am 5 7 mph 1008.1mb 64f
8:30am 5 7 mph 1008.1mb 65f
8:20am 2 5 mph 1008.1mb 63f
8:10am 3 5 mph 1008.1mb 60f
8:00am 2
mph
1008.5mb 60f
7:50am  -  2 mph 1008.5mb 60f
7:40am 2 5 mph 1008.5mb 59f
7:30am 3 5 mph 1008.1mb 59f
7:20am 3
mph
1008.1mb 59f
7:10am 2
mph
1008.1mb 59f
7:00am 2
mph
1008.1mb 59f
6:50am  -  1 mph 1008.5mb 62f
6:40am  -  mph 1008.5mb 60f
6:30am  -  mph 1008.5mb 60f
6:20am  -  1 mph 1008.1mb 58f
6:10am 1 2 mph 1008.5mb 56f
6:00am  -  1 mph 1008.5mb 54f
5:50am  -  2 mph 1008.1mb 53f
5:40am  -  1 mph 1008.1mb 54f
5:30am  -  2 mph 1008.1mb 54f
5:20am 2
mph
1008.1mb 52f
5:10am 1 2 mph 1008.1mb 53f
5:00am  -  1 mph 1008.1mb 53f
4:50am 2 5 mph 1008.1mb 53f
4:40am 2
mph
1007.8mb 53f
4:30am  -  2 mph 1008.1mb 54f
4:20am 2
mph
1007.8mb 54f
4:10am 2
mph
1008.1mb 54f
4:00am  -  3 mph 1008.1mb 54f
3:50am 2 5 mph 1008.1mb 54f
3:40am 3
mph
1008.1mb 54f
3:30am  -  1 mph 1008.1mb 55f
3:20am  -  mph 1008.1mb 56f
3:10am  -  2 mph 1008.1mb 56f
3:00am 1 2 mph 1008.5mb 56f
2:50am  -  2 mph 1008.5mb 55f
2:40am 2
mph
1008.5mb 55f
2:30am  -  2 mph 1008.5mb 55f
2:20am 1 2 mph 1008.5mb 55f
2:10am 2
mph
1008.5mb 55f
2:00am 1 2 mph 1008.5mb 55f
1:50am 1 2 mph 1008.8mb 55f
1:40am 1 2 mph 1008.5mb 55f
1:30am 2
mph
1008.8mb 55f
1:20am 2
mph
1008.8mb 55f
1:10am 3 5 mph 1008.8mb 54f
1:00am 1
mph
1008.8mb 55f
12:50am  -  2 mph 1008.8mb 56f
12:40am  -  2 mph 1008.8mb 55f
12:30am 1 5 mph 1008.8mb 55f
12:20am 3 5 mph 1008.8mb 56f
12:10am 1 2 mph 1008.8mb 56f
12:00am 1 2 mph 1008.8mb 57f
Sun 06/28 11:50pm 1 3 mph 1008.8mb 57f
11:40pm 1 2 mph 1008.8mb 57f
11:30pm 2 3 mph 1008.8mb 58f
11:20pm 2 5 mph 1008.8mb 58f
11:10pm 1 5 mph 1008.8mb 58f
11:00pm 3 5 mph 1009.1mb 58f
10:50pm  -  1 mph 1009.1mb 58f
10:40pm  -  1 mph 1009.1mb 58f
10:30pm  -  3 mph 1009.1mb 59f
10:20pm 3 5 mph 1009.1mb 58f
10:10pm  -  5 mph 1009.1mb 59f
10:00pm 3 5 mph 1009.1mb 59f
9:50pm 2
mph
1008.8mb 59f
9:40pm  -  3 mph 1009.1mb 60f
9:30pm 3 5 mph 1008.8mb 60f
9:20pm 3 6 mph 1008.8mb 61f
9:10pm 2
mph
1008.8mb 62f
9:00pm 2 7 mph 1008.8mb 62f
8:50pm 1 2 mph 1008.5mb 63f
8:40pm 1 2 mph 1008.5mb 64f
8:30pm  -  5 mph 1008.5mb 66f
8:20pm 2 3 mph 1008.5mb 68f
8:10pm 3
mph
1008.8mb 68f
8:00pm 2 6 mph 1008.8mb 68f
7:50pm 2 6 mph 1008.8mb 68f
7:40pm 3 6 mph 1008.8mb 67f
7:30pm 2 6 mph 1008.8mb 67f
7:20pm 3 7 mph 1008.8mb 67f
7:10pm 3 7 mph 1008.8mb 68f
7:00pm 3 8 mph 1008.8mb 68f
6:50pm 3 10 mph 1008.8mb 68f
6:40pm 6 9 mph 1008.8mb 68f
6:30pm  -  3 mph 1009.1mb 65f
6:20pm 2 6 mph 1009.1mb 64f
6:10pm 5
mph
1009.1mb 63f
6:00pm 3 5 mph 1009.1mb 60f
5:50pm 3 5 mph 1009.1mb 62f
5:40pm 2 7 mph 1009.1mb 61f
5:30pm 6 8 mph 1009.1mb 60f
5:20pm 7 9 mph 1009.1mb 60f
5:10pm 7 8 mph 1009.1mb 61f
5:00pm 6 7 mph 1009.1mb 61f
4:50pm 7 8 mph 1009.1mb 61f
4:40pm 6 8 mph 1009.5mb 61f
4:30pm 3 6 mph 1009.5mb 62f
4:20pm 5 6 mph 1009.1mb 62f
4:10pm 6 8 mph 1009.5mb 62f
4:00pm 6 8 mph 1009.5mb 63f
3:50pm 8 9 mph 1009.5mb 60f
3:40pm 3 6 mph 1009.8mb 61f
3:30pm 5 6 mph 1009.8mb 60f
3:20pm 3 5 mph 1010.2mb 60f
3:10pm 3 6 mph 1009.8mb 60f
3:00pm 5 6 mph 1010.2mb 62f
2:50pm 6 7 mph 1010.2mb 61f
2:40pm 6 7 mph 1010.2mb 62f
2:30pm 7 9 mph 1010.2mb 62f
2:20pm 7 8 mph 1010.2mb 61f
2:10pm 7
mph
1010.2mb 60f
2:00pm 6 7 mph 1010.2mb 60f
1:50pm 7 10 mph 1010.2mb 58f
1:40pm 9 11 mph 1010.2mb 58f
1:30pm 8 10 mph 1009.8mb 59f
1:20pm 8 10 mph 1009.8mb 60f
1:10pm 5 7 mph 1009.5mb 62f
1:00pm 6 8 mph 1009.5mb 62f
12:50pm 2 7 mph 1009.5mb 62f
12:40pm 7 11 mph 1009.5mb 62f
12:30pm 8 10 mph 1009.5mb 64f
12:20pm 8
mph
1009.5mb 65f
12:10pm 7 11 mph 1009.8mb 66f
12:00pm 11 13 mph 1009.8mb 64f
11:50am 10 11 mph 1009.8mb 63f
11:40am 7 8 mph 1009.8mb 64f
11:30am 8 10 mph 1009.8mb 65f
11:20am 7 10 mph 1009.8mb 65f
11:10am 8 9 mph 1009.8mb 63f
11:00am 7 9 mph 1009.8mb 68f
10:50am 2 8 mph 1009.8mb 72f
10:40am 7 10 mph 1009.8mb 76f
10:30am 5 8 mph 1009.8mb 77f
10:20am 7 11 mph 1009.8mb 75f
10:10am 7 10 mph 1009.8mb 75f
10:00am 5 10 mph 1009.8mb 75f
9:50am 5 10 mph 1009.8mb 74f
9:40am 3 6 mph 1009.8mb 67f
9:30am 6 11 mph 1009.8mb -
9:20am 8 13 mph 1009.8mb -
9:10am 3 6 mph 1010.2mb 61f
9:00am 3 6 mph 1010.2mb 61f
8:50am 6 7 mph 1010.2mb 59f
8:40am 5 6 mph 1010.5mb 61f
8:30am 5
mph
1010.2mb 63f
8:20am 3 6 mph 1010.2mb 65f
8:10am 2 3 mph 1009.8mb 64f
8:00am 2 6 mph 1009.8mb 63f
7:50am 5 6 mph 1010.2mb 62f
7:40am 2 3 mph 1010.2mb 61f
7:30am 1 3 mph 1010.2mb 60f
7:20am 1 3 mph 1009.8mb 59f
7:10am  -  3 mph 1010.2mb 58f
7:00am 2 3 mph 1009.8mb 57f
6:50am 1 3 mph 1010.2mb 56f
6:40am 1 2 mph 1010.2mb 55f
6:30am 1 2 mph 1010.2mb 54f
6:20am 2
mph
1010.2mb 53f
6:10am  -  3 mph 1010.2mb 52f
6:00am 2 3 mph 1010.2mb 51f
5:50am 2 3 mph 1010.2mb 50f
5:40am 3 5 mph 1010.2mb 49f
5:30am 3 5 mph 1010.2mb 48f
5:20am 3 6 mph 1010.2mb 48f
5:10am 5
mph
1010.2mb 47f
5:00am 3 5 mph 1010.2mb 47f
4:50am 5
mph
1010.2mb 47f
4:40am 3 5 mph 1010.2mb 47f
4:30am 3 5 mph 1010.5mb 47f
4:20am 3
mph
1010.2mb 47f
4:10am 3
mph
1010.5mb 47f
4:00am 3 5 mph 1010.5mb 48f
3:50am 3 5 mph 1010.5mb 47f
3:40am 3 5 mph 1010.5mb 47f
3:30am 3 5 mph 1010.5mb 47f
3:20am 3 5 mph 1010.5mb 47f
3:10am 2 3 mph 1010.5mb 47f
3:00am 2
mph
1010.8mb 47f
2:50am 1 2 mph 1010.8mb 48f
2:40am 1 2 mph 1010.8mb 47f
2:30am  -  2 mph 1011.2mb 48f
2:20am 1 3 mph 1011.2mb 48f
2:10am 2
mph
1011.2mb 49f
2:00am 2 3 mph 1011.2mb 49f
1:50am 3 5 mph 1011.2mb 49f
1:40am  -  1 mph 1011.2mb 48f
1:30am 1 2 mph 1011.2mb 48f
1:20am 1 2 mph 1011.5mb 48f
1:10am  -  2 mph 1011.5mb 49f
1:00am 2
mph
1011.9mb 49f
12:50am  -  2 mph 1011.9mb 50f
12:40am 1 2 mph 1011.9mb 49f
12:30am 2 3 mph 1011.9mb 51f
12:20am 2 3 mph 1012.2mb 50f
12:10am 2 3 mph 1012.2mb 50f
12:00am 2 3 mph 1011.9mb 50f
Sat 06/27 11:50pm 1 2 mph 1012.2mb 50f
11:40pm  -  1 mph 1012.2mb 51f
11:30pm  -  3 mph 1012.2mb 51f
11:20pm 1 2 mph 1012.5mb 51f
11:10pm 2
mph
1012.5mb 51f
11:00pm 2
mph
1012.5mb 52f
10:50pm  -  2 mph 1012.9mb 53f
10:40pm 1 2 mph 1012.9mb 52f
10:30pm 2 3 mph 1012.9mb 52f
10:20pm  -  3 mph 1012.9mb 53f
10:10pm  -  2 mph 1012.9mb 53f
10:00pm 2
mph
1012.9mb 54f
9:50pm 1 2 mph 1013.2mb 55f
9:40pm 2 5 mph 1013.2mb 55f
9:30pm 3
mph
1013.2mb 55f
9:20pm  -  3 mph 1013.2mb 55f
9:10pm 1 5 mph 1013.2mb 57f
9:00pm 2 5 mph 1013.2mb 57f
8:50pm 3 6 mph 1012.9mb 57f
8:40pm 5 8 mph 1013.2mb 57f
8:30pm 7 8 mph 1013.2mb 57f
8:20pm 7 9 mph 1013.2mb 57f
8:10pm 9 10 mph 1013.2mb 57f
8:00pm 8 9 mph 1013.5mb 57f
7:50pm 7 8 mph 1013.5mb 57f
7:40pm 6 8 mph 1013.5mb 57f
7:30pm 7 9 mph 1013.5mb 57f
7:20pm 7 8 mph 1013.5mb 57f
7:10pm 6 7 mph 1013.5mb 57f
7:00pm 5 7 mph 1013.5mb 57f
6:50pm 6 7 mph 1013.5mb 57f
6:40pm 6 7 mph 1013.5mb 57f
6:30pm 6 7 mph 1013.9mb 57f
6:20pm 6 7 mph 1013.9mb 58f
6:10pm 6 7 mph 1013.9mb 58f
6:00pm 7 8 mph 1013.9mb 58f
5:50pm 7 8 mph 1013.9mb 58f
5:40pm 6 8 mph 1014.2mb 59f
5:30pm 8 9 mph 1014.2mb 58f
5:20pm 7 9 mph 1014.6mb 59f
5:10pm 8 10 mph 1014.6mb 59f
5:00pm 8 11 mph 1014.6mb 59f
4:50pm 8 9 mph 1014.6mb 59f
4:40pm 8 9 mph 1014.9mb 59f
4:30pm 8 10 mph 1014.9mb 59f
4:20pm 7 9 mph 1014.9mb 59f
4:10pm 7 8 mph 1015.2mb 59f
4:00pm 6 7 mph 1015.2mb 59f
3:50pm 5 6 mph 1015.2mb 59f
3:40pm 6 8 mph 1015.2mb 58f
3:30pm 7 8 mph 1015.2mb 58f
3:20pm 7 8 mph 1015.2mb 58f
3:10pm 6 7 mph 1015.2mb 59f
3:00pm 5 6 mph 1015.2mb 59f
2:50pm 5 6 mph 1015.6mb 59f
2:40pm 3 5 mph 1015.6mb 58f
2:30pm 3 6 mph 1015.9mb 58f
2:20pm 3 5 mph 1015.9mb 58f
2:10pm 2 5 mph 1016.3mb 58f
2:00pm 3 5 mph 1016.3mb 59f
1:50pm 2 5 mph 1016.3mb 61f
1:40pm 3 5 mph 1016.3mb 59f
1:30pm 3 6 mph 1016.3mb 58f
1:20pm 3 5 mph 1016.3mb 58f
1:10pm 5
mph
1016.6mb 59f
1:00pm 3 6 mph 1016.6mb 58f
12:50pm 3
mph
1016.6mb 58f
12:40pm 1 3 mph 1016.9mb 58f
12:30pm 3 6 mph 1016.9mb 58f
12:20pm 5 6 mph 1017.3mb 56f
12:10pm 7 8 mph 1017.3mb 56f
12:00pm 5 8 mph 1017.3mb 58f
11:50am 7 9 mph 1017.3mb 58f
11:40am 8 9 mph 1017.3mb 58f
11:30am 5
mph
1017.3mb 60f
11:20am 3 5 mph 1017.3mb 61f
11:10am 3 5 mph 1017.6mb 60f
11:00am 3
mph
1017.6mb 59f
10:50am 2 3 mph 1017.6mb 59f
10:40am 2 5 mph 1017.9mb 59f
10:30am 3 5 mph 1017.9mb 58f
10:20am 3
mph
1017.9mb 58f
10:10am 3
mph
1018.3mb 57f
10:00am 3
mph
1018.3mb 57f
9:50am 2 3 mph 1018.3mb 57f
9:40am 3
mph
1018.3mb 56f
9:30am 3
mph
1018.6mb 56f
9:20am 3 5 mph 1018.6mb 56f
9:10am 5
mph
1018.6mb 56f
9:00am 2
mph
1018.6mb 55f
8:50am 2 5 mph 1018.6mb 56f
8:40am 5 6 mph 1018.6mb 54f
8:30am 5
mph
1018.6mb 55f
8:20am 2 3 mph 1018.3mb 56f
8:10am 3
mph
1018.3mb 55f
8:00am 3
mph
1018.6mb 55f
7:50am 1
mph
1018.6mb 56f
7:40am  -  2 mph 1018.6mb 56f
7:30am  -  2 mph 1018.6mb 56f
7:20am 1 2 mph 1018.6mb 54f
7:10am  -  1 mph 1018.6mb 55f
7:00am  -  1 mph 1019mb 55f
6:50am 2
mph
1018.6mb 52f
6:40am 1 2 mph 1018.6mb 52f
6:30am  -  3 mph 1018.6mb 49f
6:20am 2 3 mph 1018.6mb 49f
6:10am 2 5 mph 1018.6mb 48f
6:00am 5 6 mph 1018.6mb 47f
5:50am 5 6 mph 1018.6mb 46f
5:40am 3 5 mph 1018.6mb 45f
5:30am 3
mph
1018.3mb 45f
5:20am 3 5 mph 1018.6mb 44f
5:10am 3
mph
1018.6mb 44f
5:00am 2 5 mph 1018.6mb 44f
4:50am 3
mph
1018.6mb 44f
4:40am 2
mph
1018.6mb 44f
4:30am 2 3 mph 1018.6mb 45f
4:20am 3 5 mph 1018.3mb 44f
4:10am 3
mph
1018.6mb 44f
4:00am 2 3 mph 1018.3mb 44f
3:50am 2 3 mph 1018.6mb 45f
3:40am 3
mph
1018.6mb 45f
3:30am 5
mph
1018.6mb 45f
3:20am 3
mph
1018.6mb 45f
3:10am 2
mph
1018.6mb 45f
3:00am 2 3 mph 1018.6mb 45f
2:50am 3
mph
1018.6mb 45f
2:40am 3
mph
1018.6mb 45f
2:30am 2 3 mph 1018.6mb 45f
2:20am 2 3 mph 1018.6mb 44f
2:10am 1 2 mph 1018.6mb 45f
2:00am 1 2 mph 1019mb 46f
1:50am  -  mph 1019mb 47f
1:40am  -  2 mph 1018.6mb 47f
1:30am 2 3 mph 1018.6mb 47f
1:20am 2 3 mph 1018.6mb 46f
1:10am 2
mph
1018.6mb 47f
1:00am 2 3 mph 1019mb 48f
12:50am 3
mph
1018.6mb 48f
12:40am 2 3 mph 1019mb 49f
12:30am 3
mph
1019.3mb 48f